[[{"header":{"parameterUnit":"m.s-1","parameterCategory":1,"la1":30.2991,"la2":30.254,"lo1":-89.0895,"lo2":-89.0444,"dy":0.0017,"dx":0.0017,"nx":28,"ny":28,"refTime":"2025-11-13T09:00:00:Z","depth":0,"parameterNumber":2,"parameterNumberName":"U-component_of_WINDS"},"data":[0,0,0,0,0,0,0,0,0,0,0,0,0,0,0,0,0,0,0,0,0,0,0,0,0,0,0,0,0,0,0,0,0,0,0,0,0,0,0,0,0,0,0,0,0,0,0,0,0,0,0,0,0,0,0,0,0,0,0.5627,0.5627,0,0.5677,0.5678,0.5678,0.5646,0.5644,0.5643,0.5642,0.5696,0.5698,0.5701,0,0,0,0,0,0,0,0,0,0,0,0,0,0.5507,0.551,0.5627,0.5627,0.5628,0.5677,0.5678,0.5678,0.5646,0.5644,0.5643,0.5641,0.5695,0.5698,0.5701,0,0,0,0,0,0,0,0,0,0,0,0,0,0.5559,0.551,0.5626,0.5618,0.5617,0.5677,0.5678,0.5678,0.5647,0.5644,0.5642,0.564,0.5693,0.5698,0.5702,0.5773,0,0,0.5715,0.5717,0,0,0,0,0,0,0,0,0.5556,0.5563,0.5618,0.5618,0.5618,0.5653,0.5655,0.571,0.5647,0.5636,0.5642,0.5639,0.5683,0.5688,0.5703,0.5776,0.5778,0.5715,0.5718,0.572,0.5721,0,0,0,0,0,0,0,0.5552,0.5561,0.5647,0.5619,0.5619,0.5613,0.5618,0.5666,0.5672,0.5636,0.5634,0.5641,0.5683,0.5699,0.5704,0.5779,0.5715,0.5719,0.5721,0.5723,0.5918,0.5921,0,0,0,0,0,0,0.5549,0.5558,0.5645,0.5648,0.5581,0.5617,0.5622,0.5644,0.5671,0.5673,0.5642,0.5639,0.5693,0.5699,0.5706,0.5794,0.572,0.5724,0.5726,0.5916,0.5919,0.5922,0,0,0,0,0,0,0.5546,0.5557,0.5643,0.5602,0.5613,0.5621,0.5646,0.5646,0.5662,0.5675,0.5677,0.5657,0.5691,0.57,0.5758,0.5796,0.5725,0.5729,0.5913,0.5917,0.592,0.5971,0,0,0,0,0,0,0.5543,0.5556,0.5582,0.5603,0.5615,0.5693,0.5648,0.5649,0.5669,0.5665,0.569,0.5692,0.569,0.5751,0.5762,0.58,0.5733,0.5909,0.5914,0.5919,0.5966,0.5976,0.5985,0,0,0,0,0,0.5539,0.5594,0.5584,0.5594,0.5648,0.5695,0.5702,0.5698,0.5672,0.57,0.5709,0.5691,0.5789,0.5758,0.5769,0.5809,0.5907,0.5913,0.5919,0.5961,0.5974,0.5984,0,0,0,0,0,0,0.5577,0.5596,0.5585,0.5648,0.567,0.5689,0.5723,0.5711,0.5741,0.5736,0.5731,0.5737,0.5798,0.5809,0.5773,0.5882,0.5844,0.5853,0.5873,0.5885,0.5894,0.5891,0.5736,0,0,0,0,0,0.5592,0.5628,0.5643,0.5698,0.5709,0.5715,0.5735,0.5731,0.5754,0.5763,0.5776,0.58,0.5837,0.5861,0.5895,0.5967,0.5974,0.6001,0.601,0.6018,0.6026,0.6069,0.6082,0.5941,0.5941,0.5941,0,0,0.5625,0.564,0.5663,0.5706,0.5722,0.5762,0.5723,0.5765,0.5795,0.5769,0.5826,0.5837,0.5863,0.593,0.5959,0.5941,0.6066,0.6025,0.6031,0.6035,0.6076,0.609,0.6101,0.5945,0.5944,0.5944,0,0,0.5705,0.5719,0.5767,0.5785,0.5811,0.5815,0.5827,0.5849,0.5855,0.5912,0.5895,0.5931,0.5993,0.6014,0.6033,0.6125,0.6112,0.6137,0.6187,0.6229,0.624,0.625,0.6286,0.6299,0.6144,0.6144,0.6144,0,0.5743,0.58,0.5794,0.5839,0.586,0.5839,0.589,0.5908,0.5944,0.596,0.5938,0.6019,0.6035,0.6108,0.6131,0.6146,0.6162,0.6134,0.6238,0.6248,0.6257,0.6292,0.6306,0.6147,0.6147,0.6147,0.6146,0,0.5847,0.5887,0.5924,0.596,0.5985,0.6032,0.6036,0.6062,0.6056,0.6063,0.6123,0.6142,0.6182,0.6198,0.6192,0.6272,0.626,0.6238,0.6201,0.6274,0.6307,0.632,0.6152,0.6151,0.615,0.6149,0,0,0.5951,0.5986,0.5999,0.6018,0.6046,0.6078,0.6126,0.6165,0.6189,0.6215,0.6258,0.6313,0.6294,0.6316,0.6313,0.6349,0.6426,0.6324,0.6324,0.6345,0.6519,0.6537,0.6553,0.6416,0.6419,0.6421,0.6518,0,0.6036,0.6119,0.6117,0.6195,0.6235,0.6217,0.626,0.6283,0.6292,0.6328,0.6337,0.6378,0.6348,0.6362,0.6397,0.6409,0.6461,0.6402,0.6459,0.6461,0.6455,0.6569,0.6587,0.6679,0.6531,0.6533,0.6534,0,0.6145,0.6176,0.6259,0.6285,0.6302,0.634,0.6377,0.6411,0.6439,0.6443,0.6469,0.646,0.6512,0.6472,0.6545,0.6505,0.6528,0.6538,0.6542,0.6549,0.6503,0.6582,0.6707,0.6722,0.6554,0.6552,0.6551,0,0.6217,0.628,0.6338,0.6353,0.6385,0.6413,0.6427,0.6453,0.6478,0.6511,0.6528,0.6566,0.6588,0.662,0.6624,0.6593,0.6699,0.6658,0.6707,0.6707,0.6731,0.673,0.6864,0.6742,0.6741,0.6741,0.6741,0,0.6313,0.6365,0.6372,0.6408,0.6467,0.6465,0.6524,0.6536,0.656,0.66,0.6587,0.6625,0.6626,0.6667,0.667,0.6733,0.6742,0.6749,0.6749,0.6751,0.6751,0.6768,0.6763,0.6745,0.6744,0.6743,0.6743,0,0.6404,0.641,0.6473,0.6498,0.6506,0.6549,0.6572,0.6608,0.6616,0.6667,0.6679,0.6692,0.674,0.6746,0.6801,0.6803,0.688,0.6872,0.6871,0.687,0.692,0.6916,0.7072,0.7094,0.6954,0.6956,0.6957,0,0.6466,0.6506,0.6536,0.6562,0.6579,0.662,0.6646,0.6647,0.6674,0.6711,0.6744,0.679,0.6826,0.6903,0.6918,0.6961,0.6957,0.7009,0.6963,0.6966,0.6962,0.6961,0.6966,0.7018,0.702,0.7021,0.7022,0,0.6576,0.6578,0.6615,0.6655,0.6687,0.6718,0.6747,0.677,0.6775,0.6807,0.6855,0.6884,0.6941,0.6988,0.7031,0.7048,0.7038,0.7036,0.705,0.7054,0.7052,0.7057,0.6898,0.7033,0.7032,0.7031,0.703,0.703,0.6657,0.6693,0.6721,0.6765,0.6787,0.6816,0.6852,0.6866,0.6905,0.6952,0.695,0.7004,0.7035,0.7092,0.7112,0.7156,0.714,0.7159,0.7165,0.717,0.7177,0.7044,0.7164,0.7163,0.7163,0.7163,0.7163,0,0.677,0.6787,0.6827,0.687,0.6905,0.689,0.6923,0.6954,0.7002,0.7031,0.7068,0.7126,0.7172,0.7192,0.7239,0.727,0.7267,0.7283,0.7282,0.7287,0.7187,0.7172,0.7285,0.7285,0.7285,0.7285,0.7285,0.7285,0.6832,0.6894,0.69,0.6975,0.6992,0.7045,0.7066,0.7094,0.7117,0.7182,0.7221,0.7233,0.726,0.7309,0.7352,0.7357,0.7376,0.7396,0.7399,0.7306,0.7293,0.7281,0.7267,0.7399,0.7399,0.7495,0.7496,0.7497]},{"header":{"parameterUnit":"m.s-1","parameterCategory":1,"la1":30.2991,"la2":30.254,"lo1":-89.0895,"lo2":-89.0444,"dy":0.0017,"dx":0.0017,"nx":28,"ny":28,"refTime":"2025-11-13T09:00:00:Z","depth":0,"parameterNumber":3,"parameterNumberName":"V-component_of_WINDS"},"data":[0,0,0,0,0,0,0,0,0,0,0,0,0,0,0,0,0,0,0,0,0,0,0,0,0,0,0,0,0,0,0,0,0,0,0,0,0,0,0,0,0,0,0,0,0,0,0,0,0,0,0,0,0,0,0,0,0,0,-1.1356,-1.1356,0,-1.1394,-1.1394,-1.1394,-1.14,-1.1399,-1.1399,-1.1399,-1.1436,-1.1438,-1.1439,0,0,0,0,0,0,0,0,0,0,0,0,0,-1.1287,-1.1288,-1.1356,-1.1356,-1.1357,-1.1393,-1.1394,-1.1394,-1.14,-1.1399,-1.1399,-1.1399,-1.1436,-1.1437,-1.1439,0,0,0,0,0,0,0,0,0,0,0,0,0,-1.132,-1.1288,-1.1355,-1.1364,-1.1365,-1.1393,-1.1394,-1.1395,-1.14,-1.1399,-1.1399,-1.1398,-1.1435,-1.1437,-1.1439,-1.1462,0,0,-1.1445,-1.1446,0,0,0,0,0,0,0,0,-1.1318,-1.1322,-1.1362,-1.1363,-1.1364,-1.1391,-1.1383,-1.1417,-1.14,-1.1387,-1.1399,-1.1398,-1.1422,-1.1425,-1.1433,-1.1464,-1.1465,-1.1445,-1.1447,-1.1448,-1.1448,0,0,0,0,0,0,0,-1.1316,-1.1321,-1.1371,-1.1363,-1.1364,-1.1365,-1.1369,-1.139,-1.1407,-1.1388,-1.1388,-1.1393,-1.1422,-1.1431,-1.1434,-1.1466,-1.1445,-1.1447,-1.1448,-1.1449,-1.1517,-1.1517,0,0,0,0,0,0,-1.1312,-1.1319,-1.1369,-1.1372,-1.1339,-1.1367,-1.1371,-1.1383,-1.1406,-1.1409,-1.1393,-1.1393,-1.1428,-1.1432,-1.1435,-1.1463,-1.1448,-1.1449,-1.1451,-1.1516,-1.1517,-1.1518,0,0,0,0,0,0,-1.131,-1.1316,-1.1368,-1.1345,-1.1352,-1.1369,-1.1382,-1.1384,-1.1393,-1.141,-1.1413,-1.1399,-1.1428,-1.1432,-1.1455,-1.1464,-1.145,-1.1452,-1.1515,-1.1516,-1.1517,-1.1519,0,0,0,0,0,0,-1.1308,-1.1316,-1.1325,-1.1346,-1.1353,-1.1387,-1.1382,-1.1385,-1.1397,-1.1397,-1.1417,-1.142,-1.1428,-1.1452,-1.1457,-1.1467,-1.1454,-1.1515,-1.1516,-1.1517,-1.1518,-1.152,-1.1521,0,0,0,0,0,-1.1306,-1.1324,-1.1325,-1.1331,-1.1365,-1.1388,-1.1392,-1.1402,-1.1397,-1.1406,-1.1418,-1.1419,-1.1463,-1.1455,-1.146,-1.1471,-1.1514,-1.1515,-1.1517,-1.1517,-1.1519,-1.1521,0,0,0,0,0,0,-1.1303,-1.1326,-1.1329,-1.1353,-1.1369,-1.1389,-1.14,-1.1403,-1.142,-1.1419,-1.143,-1.1434,-1.1456,-1.1466,-1.1456,-1.1494,-1.1488,-1.1491,-1.1486,-1.1489,-1.149,-1.1487,-1.1455,0,0,0,0,0,-1.1305,-1.1322,-1.1342,-1.1362,-1.137,-1.1384,-1.1394,-1.14,-1.1416,-1.1422,-1.1435,-1.1451,-1.1468,-1.1479,-1.1496,-1.152,-1.1524,-1.153,-1.1531,-1.1532,-1.1534,-1.1547,-1.155,-1.1522,-1.1522,-1.1522,0,0,-1.131,-1.1325,-1.1335,-1.1362,-1.1374,-1.1391,-1.1389,-1.1407,-1.142,-1.1425,-1.1447,-1.1457,-1.1475,-1.1499,-1.151,-1.1507,-1.1543,-1.1534,-1.1535,-1.1536,-1.1549,-1.1552,-1.1554,-1.1523,-1.1523,-1.1523,0,0,-1.1327,-1.1341,-1.1359,-1.1371,-1.1391,-1.14,-1.1404,-1.1424,-1.1431,-1.1454,-1.1458,-1.1473,-1.1503,-1.1515,-1.1525,-1.1548,-1.155,-1.1553,-1.1561,-1.1574,-1.1576,-1.1578,-1.1585,-1.1588,-1.1555,-1.1555,-1.1555,0,-1.133,-1.1357,-1.1367,-1.1386,-1.1397,-1.1403,-1.1421,-1.1433,-1.1457,-1.1464,-1.1461,-1.1499,-1.1511,-1.1537,-1.1543,-1.1551,-1.1556,-1.155,-1.1575,-1.1577,-1.1579,-1.1586,-1.1589,-1.1555,-1.1555,-1.1555,-1.1555,0,-1.136,-1.1378,-1.139,-1.1414,-1.1426,-1.1445,-1.1457,-1.1469,-1.1474,-1.1484,-1.1507,-1.1522,-1.1542,-1.1548,-1.1553,-1.1576,-1.1573,-1.1573,-1.1567,-1.1582,-1.1589,-1.1591,-1.1556,-1.1555,-1.1555,-1.1555,0,0,-1.1376,-1.1405,-1.1409,-1.1419,-1.1441,-1.1455,-1.1474,-1.1494,-1.1504,-1.152,-1.1535,-1.156,-1.156,-1.1571,-1.1577,-1.1589,-1.1605,-1.1586,-1.1587,-1.1589,-1.163,-1.163,-1.1633,-1.1607,-1.1607,-1.1608,-1.1629,0,-1.1395,-1.1428,-1.1438,-1.1466,-1.1483,-1.1489,-1.1505,-1.152,-1.1529,-1.1545,-1.1555,-1.1573,-1.1571,-1.1578,-1.1589,-1.1601,-1.1613,-1.1599,-1.1621,-1.1621,-1.1615,-1.1637,-1.1637,-1.1656,-1.1631,-1.1632,-1.1632,0,-1.1422,-1.1439,-1.1469,-1.1488,-1.1496,-1.151,-1.1529,-1.1544,-1.1561,-1.1567,-1.1581,-1.1586,-1.1605,-1.1599,-1.1625,-1.1615,-1.1625,-1.1632,-1.1633,-1.1634,-1.1627,-1.1639,-1.1662,-1.1665,-1.1637,-1.1636,-1.1636,0,-1.143,-1.146,-1.1482,-1.1491,-1.1515,-1.1524,-1.1535,-1.1551,-1.1563,-1.1579,-1.1587,-1.1605,-1.1615,-1.1629,-1.164,-1.1634,-1.1665,-1.166,-1.167,-1.167,-1.1675,-1.1675,-1.17,-1.1683,-1.1683,-1.1682,-1.1682,0,-1.145,-1.1468,-1.1486,-1.1499,-1.1519,-1.153,-1.155,-1.156,-1.1575,-1.159,-1.1597,-1.161,-1.1623,-1.1639,-1.1647,-1.1667,-1.1672,-1.1677,-1.1679,-1.1676,-1.1675,-1.1682,-1.1681,-1.1683,-1.1683,-1.1683,-1.1683,0,-1.1462,-1.1475,-1.1499,-1.1519,-1.1525,-1.1539,-1.1556,-1.1569,-1.1579,-1.1598,-1.1604,-1.1619,-1.1638,-1.165,-1.1673,-1.1679,-1.1701,-1.1703,-1.1695,-1.1696,-1.1705,-1.1704,-1.1735,-1.174,-1.172,-1.172,-1.172,0,-1.1474,-1.1487,-1.151,-1.1521,-1.1531,-1.1549,-1.156,-1.1572,-1.1584,-1.1605,-1.1615,-1.1634,-1.165,-1.168,-1.1693,-1.1711,-1.1713,-1.1723,-1.1716,-1.1713,-1.1713,-1.1711,-1.1713,-1.1724,-1.1724,-1.1724,-1.1724,0,-1.1493,-1.1499,-1.1516,-1.1535,-1.1549,-1.1565,-1.158,-1.1589,-1.1603,-1.1616,-1.1636,-1.1648,-1.1673,-1.1691,-1.1711,-1.1721,-1.1725,-1.1726,-1.173,-1.1726,-1.1721,-1.1724,-1.1698,-1.1725,-1.1725,-1.1725,-1.1725,-1.1725,-1.1505,-1.1517,-1.1535,-1.1554,-1.1567,-1.1581,-1.1595,-1.1607,-1.1623,-1.1644,-1.165,-1.167,-1.1687,-1.1714,-1.1725,-1.174,-1.1739,-1.1744,-1.1745,-1.1746,-1.1746,-1.172,-1.1744,-1.1744,-1.1744,-1.1744,-1.1744,0,-1.1524,-1.1536,-1.1553,-1.1575,-1.159,-1.1593,-1.161,-1.1622,-1.164,-1.1655,-1.1671,-1.1694,-1.1712,-1.1727,-1.1746,-1.1756,-1.1758,-1.176,-1.1759,-1.1761,-1.1746,-1.1741,-1.1758,-1.1758,-1.1758,-1.1758,-1.1758,-1.1758,-1.1536,-1.1557,-1.1565,-1.1593,-1.1604,-1.1625,-1.1634,-1.1648,-1.166,-1.1685,-1.17,-1.171,-1.1726,-1.1746,-1.1763,-1.1767,-1.1773,-1.1775,-1.1779,-1.1764,-1.1763,-1.1761,-1.1756,-1.1776,-1.1776,-1.1793,-1.1793,-1.1794]}]]